[[{"header":{"parameterUnit":"m.s-1","parameterCategory":1,"la1":30.2991,"la2":30.254,"lo1":-89.0895,"lo2":-89.0444,"dy":0.0017,"dx":0.0017,"nx":28,"ny":28,"refTime":"2025-12-26T09:00:00:Z","depth":0,"parameterNumber":2,"parameterNumberName":"U-component_of_WINDS"},"data":[0,0,0,0,0,0,0,0,0,0,0,0,0,0,0,0,0,0,0,0,0,0,0,0,0,0,0,0,0,0,0,0,0,0,0,0,0,0,0,0,0,0,0,0,0,0,0,0,0,0,0,0,0,0,0,0,0,0,2.1911,2.1912,0,2.1958,2.1959,2.1959,2.1921,2.1919,2.1918,2.1916,2.197,2.1973,2.1975,0,0,0,0,0,0,0,0,0,0,0,0,0,2.1794,2.1796,2.1911,2.1912,2.1912,2.1958,2.1959,2.1959,2.1921,2.1919,2.1917,2.1915,2.1969,2.1972,2.1976,0,0,0,0,0,0,0,0,0,0,0,0,0,2.1843,2.1797,2.1911,2.1899,2.1898,2.1958,2.1959,2.196,2.1922,2.1919,2.1917,2.1914,2.1968,2.1972,2.1976,2.2053,0,0,2.199,2.1992,0,0,0,0,0,0,0,0,2.184,2.1848,2.19,2.19,2.1899,2.1931,2.1937,2.1991,2.1922,2.1913,2.1916,2.1913,2.1959,2.1964,2.1979,2.2055,2.2057,2.199,2.1993,2.1995,2.1996,0,0,0,0,0,0,0,2.1837,2.1845,2.193,2.1901,2.19,2.1893,2.1897,2.1947,2.1949,2.1913,2.1911,2.1917,2.1959,2.1974,2.198,2.2058,2.199,2.1994,2.1997,2.1998,2.2202,2.2205,0,0,0,0,0,0,2.1834,2.1843,2.1928,2.1931,2.1863,2.1897,2.1901,2.1923,2.1949,2.195,2.1919,2.1915,2.1968,2.1974,2.1981,2.2073,2.1995,2.1999,2.2001,2.2199,2.2203,2.2206,0,0,0,0,0,0,2.1832,2.1842,2.1926,2.1886,2.1896,2.1901,2.1926,2.1926,2.1941,2.1952,2.1953,2.1934,2.1966,2.1975,2.2035,2.2075,2.2001,2.2005,2.2196,2.22,2.2204,2.2257,0,0,0,0,0,0,2.1829,2.1841,2.1869,2.1887,2.1899,2.1978,2.1928,2.1928,2.1948,2.1944,2.1967,2.1969,2.1965,2.2029,2.204,2.2079,2.2008,2.2192,2.2198,2.2203,2.2252,2.2263,2.2272,0,0,0,0,0,2.1824,2.1883,2.1871,2.1881,2.1933,2.198,2.1987,2.198,2.1952,2.198,2.1988,2.1968,2.2069,2.2035,2.2047,2.2089,2.219,2.2196,2.2202,2.2248,2.2261,2.2272,0,0,0,0,0,0,2.1871,2.1885,2.1871,2.1937,2.1958,2.1973,2.2009,2.1994,2.2024,2.2018,2.201,2.2016,2.2079,2.209,2.2053,2.2165,2.2125,2.2134,2.2155,2.2168,2.2178,2.2174,2.2012,0,0,0,0,0,2.1888,2.1923,2.1935,2.1992,2.2003,2.2005,2.2025,2.2018,2.2039,2.2048,2.206,2.2083,2.212,2.2145,2.2179,2.2254,2.2259,2.2288,2.2298,2.2306,2.2314,2.2356,2.2369,2.2226,2.2226,2.2226,0,0,2.1925,2.1938,2.1961,2.2002,2.2016,2.2055,2.2012,2.2054,2.2084,2.2055,2.2112,2.2122,2.2148,2.2216,2.2246,2.2227,2.2355,2.2314,2.2321,2.2324,2.2364,2.2377,2.2389,2.223,2.2229,2.2229,0,0,2.2012,2.2025,2.2074,2.209,2.2113,2.2114,2.2126,2.2145,2.215,2.2206,2.2186,2.2222,2.2285,2.2305,2.2323,2.242,2.2403,2.2431,2.2483,2.2524,2.2535,2.2545,2.2581,2.2593,2.2439,2.2439,2.2439,0,2.2056,2.2111,2.2102,2.2146,2.2165,2.214,2.2191,2.2208,2.2242,2.2257,2.2234,2.2313,2.2329,2.2402,2.2425,2.2441,2.2456,2.2428,2.2534,2.2544,2.2553,2.2587,2.26,2.2443,2.2442,2.2442,2.2442,0,2.2165,2.2204,2.2241,2.2273,2.2297,2.2344,2.2344,2.2369,2.2361,2.2365,2.2425,2.2443,2.2481,2.2498,2.249,2.257,2.2557,2.2535,2.2494,2.257,2.2602,2.2615,2.2447,2.2446,2.2445,2.2444,0,0,2.2281,2.2307,2.2321,2.2336,2.236,2.2391,2.2439,2.2475,2.2498,2.2523,2.2563,2.2618,2.2598,2.2619,2.2613,2.2649,2.2726,2.2622,2.2623,2.2642,2.2817,2.2834,2.2849,2.2715,2.2718,2.272,2.2815,0,2.237,2.245,2.2443,2.252,2.2557,2.2535,2.2577,2.2597,2.2603,2.2637,2.2644,2.2683,2.2653,2.2665,2.27,2.2709,2.2761,2.2702,2.2755,2.2757,2.2749,2.2865,2.2883,2.2972,2.2827,2.2829,2.2831,0,2.2483,2.2511,2.2591,2.2611,2.2626,2.2663,2.2697,2.2729,2.2753,2.2755,2.2779,2.2768,2.2818,2.2777,2.2847,2.2807,2.2829,2.2837,2.284,2.2845,2.2798,2.2874,2.3,2.3014,2.285,2.2849,2.2847,0,2.2561,2.2618,2.2674,2.2687,2.2712,2.2739,2.2751,2.2772,2.2794,2.2824,2.2839,2.2876,2.2896,2.2925,2.2925,2.2895,2.2997,2.2955,2.3001,2.3001,2.3024,2.3022,2.3156,2.3037,2.3037,2.3037,2.3036,0,2.266,2.271,2.2709,2.2743,2.28,2.2793,2.285,2.2859,2.2879,2.2916,2.29,2.2936,2.2933,2.2971,2.2971,2.303,2.304,2.3044,2.3043,2.3045,2.3045,2.3059,2.3053,2.304,2.304,2.3039,2.3038,0,2.2756,2.2757,2.2816,2.2835,2.2841,2.2882,2.2898,2.2932,2.2937,2.2984,2.2995,2.3004,2.3046,2.305,2.31,2.31,2.3172,2.3165,2.3163,2.3162,2.3208,2.3204,2.3356,2.3376,2.3244,2.3245,2.3246,0,2.2819,2.2857,2.288,2.2903,2.2916,2.2953,2.2976,2.2972,2.2997,2.3028,2.3059,2.31,2.3132,2.3202,2.3214,2.3253,2.3247,2.3298,2.3253,2.3254,2.3249,2.3246,2.3251,2.3306,2.3308,2.3309,2.331,0,2.2932,2.2931,2.2963,2.2997,2.3024,2.3051,2.3076,2.3096,2.3095,2.3125,2.3168,2.3193,2.3244,2.3286,2.3324,2.3338,2.3325,2.3324,2.3337,2.3339,2.3337,2.3339,2.3187,2.332,2.3319,2.3319,2.3318,2.3318,2.3013,2.3046,2.3068,2.3105,2.3123,2.3147,2.318,2.3189,2.3224,2.3264,2.3261,2.3309,2.3334,2.3384,2.3401,2.344,2.3423,2.3442,2.3447,2.3451,2.3456,2.3331,2.3447,2.3447,2.3447,2.3447,2.3446,0,2.3125,2.3138,2.3173,2.3207,2.3238,2.3221,2.3249,2.3275,2.3317,2.3341,2.3374,2.3424,2.3465,2.348,2.3521,2.3549,2.3544,2.356,2.3558,2.3562,2.3469,2.3454,2.3564,2.3564,2.3564,2.3564,2.3564,2.3564,2.3187,2.3242,2.3244,2.331,2.3323,2.3369,2.3386,2.3409,2.3428,2.3484,2.3518,2.3527,2.3548,2.3591,2.3628,2.3632,2.3648,2.3666,2.3668,2.358,2.3568,2.3557,2.3543,2.367,2.367,2.3758,2.3759,2.3759]},{"header":{"parameterUnit":"m.s-1","parameterCategory":1,"la1":30.2991,"la2":30.254,"lo1":-89.0895,"lo2":-89.0444,"dy":0.0017,"dx":0.0017,"nx":28,"ny":28,"refTime":"2025-12-26T09:00:00:Z","depth":0,"parameterNumber":3,"parameterNumberName":"V-component_of_WINDS"},"data":[0,0,0,0,0,0,0,0,0,0,0,0,0,0,0,0,0,0,0,0,0,0,0,0,0,0,0,0,0,0,0,0,0,0,0,0,0,0,0,0,0,0,0,0,0,0,0,0,0,0,0,0,0,0,0,0,0,0,1.7549,1.755,0,1.7559,1.7559,1.7559,1.754,1.754,1.7539,1.7538,1.7547,1.7548,1.7549,0,0,0,0,0,0,0,0,0,0,0,0,0,1.7515,1.7516,1.7549,1.755,1.755,1.7559,1.7559,1.7559,1.754,1.754,1.7539,1.7538,1.7547,1.7548,1.7549,0,0,0,0,0,0,0,0,0,0,0,0,0,1.7528,1.7516,1.7549,1.7542,1.7541,1.7559,1.7559,1.7559,1.754,1.754,1.7539,1.7538,1.7547,1.7548,1.7549,1.7575,0,0,1.7553,1.7553,0,0,0,0,0,0,0,0,1.7527,1.7529,1.7543,1.7542,1.7541,1.7547,1.755,1.7564,1.7541,1.7541,1.7538,1.7537,1.7548,1.7549,1.7553,1.7575,1.7576,1.7553,1.7554,1.7554,1.7555,0,0,0,0,0,0,0,1.7526,1.7529,1.7553,1.7543,1.7542,1.7537,1.7538,1.7553,1.7549,1.7541,1.7539,1.7541,1.7548,1.7552,1.7553,1.7576,1.7553,1.7554,1.7555,1.7555,1.762,1.762,0,0,0,0,0,0,1.7527,1.7528,1.7553,1.7553,1.7532,1.7539,1.754,1.7546,1.7549,1.7549,1.7541,1.754,1.755,1.7552,1.7553,1.7584,1.7554,1.7555,1.7556,1.7619,1.762,1.7621,0,0,0,0,0,0,1.7526,1.7529,1.7552,1.754,1.7543,1.754,1.7548,1.7547,1.7551,1.755,1.7549,1.7546,1.7549,1.7551,1.757,1.7584,1.7556,1.7557,1.7617,1.7619,1.762,1.7644,0,0,0,0,0,0,1.7525,1.7529,1.7539,1.7541,1.7544,1.7569,1.7549,1.7548,1.7553,1.7551,1.7554,1.7554,1.7549,1.7568,1.7571,1.7585,1.7558,1.7616,1.7618,1.762,1.7642,1.7647,1.765,0,0,0,0,0,1.7524,1.7545,1.7539,1.7542,1.7556,1.757,1.7571,1.7566,1.7554,1.7564,1.7563,1.7554,1.7581,1.757,1.7573,1.7588,1.7615,1.7618,1.762,1.7641,1.7646,1.765,0,0,0,0,0,0,1.7545,1.7545,1.7539,1.7561,1.7566,1.7567,1.7579,1.7571,1.7579,1.7576,1.7569,1.7569,1.7589,1.759,1.7577,1.7612,1.7596,1.7599,1.7611,1.7616,1.762,1.762,1.7559,0,0,0,0,0,1.7552,1.7564,1.7563,1.7583,1.7585,1.7582,1.7588,1.7583,1.7587,1.7588,1.7589,1.7593,1.7603,1.7609,1.7618,1.7642,1.7643,1.7653,1.7657,1.7661,1.7663,1.7676,1.7681,1.7628,1.7628,1.7628,0,0,1.7567,1.7569,1.7577,1.7587,1.759,1.7602,1.7584,1.7597,1.7605,1.759,1.7608,1.7608,1.7612,1.7633,1.7643,1.7635,1.7678,1.7663,1.7666,1.7667,1.7679,1.7684,1.7688,1.763,1.7629,1.7629,0,0,1.7601,1.7603,1.762,1.7623,1.7628,1.7625,1.7629,1.7631,1.7631,1.7648,1.7637,1.7647,1.7664,1.7667,1.7671,1.7706,1.7697,1.7709,1.7729,1.7742,1.7746,1.7749,1.7762,1.7767,1.7711,1.7711,1.7711,0,1.762,1.7637,1.763,1.7644,1.7649,1.7636,1.7653,1.7656,1.7663,1.7667,1.7657,1.7678,1.768,1.7702,1.771,1.7714,1.7718,1.7709,1.7746,1.7749,1.7753,1.7765,1.7769,1.7713,1.7713,1.7712,1.7712,0,1.7659,1.7672,1.7685,1.7692,1.7698,1.7714,1.7709,1.7716,1.771,1.7709,1.7726,1.7728,1.7737,1.7741,1.7736,1.7762,1.7757,1.7747,1.7731,1.7759,1.777,1.7775,1.7715,1.7714,1.7714,1.7713,0,0,1.7707,1.771,1.7715,1.7718,1.7722,1.7731,1.7746,1.7754,1.7761,1.7766,1.7778,1.7792,1.7783,1.7787,1.7782,1.7793,1.782,1.7781,1.7781,1.7789,1.785,1.7858,1.7864,1.7814,1.7815,1.7816,1.785,0,1.7741,1.7767,1.7761,1.7786,1.7797,1.7784,1.7797,1.78,1.7799,1.7808,1.7806,1.7817,1.7803,1.7806,1.7816,1.7815,1.7833,1.7812,1.7826,1.7826,1.7826,1.7869,1.7878,1.791,1.7854,1.7855,1.7855,0,1.7784,1.7791,1.7818,1.7819,1.7824,1.7835,1.7843,1.7851,1.7855,1.7853,1.7858,1.785,1.7865,1.7848,1.7867,1.7854,1.7859,1.7859,1.786,1.7862,1.7843,1.7873,1.792,1.7926,1.7862,1.7862,1.7861,0,1.7817,1.7833,1.7851,1.7854,1.7856,1.7864,1.7866,1.7868,1.7874,1.788,1.7884,1.7892,1.7896,1.7902,1.7897,1.7885,1.7917,1.79,1.7916,1.7917,1.7924,1.7924,1.7974,1.7927,1.7927,1.7926,1.7926,0,1.7856,1.7873,1.7866,1.7877,1.7895,1.7887,1.7906,1.7905,1.7908,1.7918,1.7907,1.7918,1.791,1.7919,1.7915,1.7932,1.7934,1.7933,1.7932,1.7934,1.7935,1.7938,1.7936,1.7928,1.7927,1.7927,1.7927,0,1.7896,1.7892,1.7911,1.7911,1.7912,1.7925,1.7926,1.7936,1.7933,1.7947,1.795,1.7946,1.7956,1.7951,1.7962,1.7959,1.7981,1.7977,1.7981,1.798,1.7996,1.7995,1.8051,1.8058,1.8005,1.8006,1.8006,0,1.7922,1.7934,1.7936,1.7943,1.7945,1.7955,1.7961,1.7953,1.796,1.7965,1.7974,1.7984,1.7991,1.8008,1.8007,1.8015,1.8011,1.803,1.8012,1.8014,1.8012,1.8011,1.8013,1.8034,1.8034,1.8035,1.8035,0,1.7968,1.7965,1.7973,1.7981,1.7988,1.7994,1.7999,1.8005,1.7998,1.8005,1.8016,1.8022,1.8033,1.8043,1.805,1.8051,1.8042,1.8041,1.8045,1.8048,1.805,1.805,1.7991,1.804,1.8039,1.8039,1.8039,1.8038,1.8002,1.8012,1.8015,1.8025,1.8028,1.8033,1.8042,1.8041,1.805,1.8059,1.8053,1.8066,1.8069,1.8078,1.808,1.8089,1.8082,1.8088,1.809,1.8092,1.8094,1.8048,1.809,1.809,1.809,1.809,1.809,0,1.8047,1.8048,1.8058,1.8065,1.8073,1.8063,1.8068,1.8075,1.8086,1.809,1.8097,1.811,1.8119,1.8117,1.8126,1.8134,1.813,1.8136,1.8136,1.8137,1.81,1.8096,1.8139,1.8139,1.8139,1.8139,1.8139,1.8139,1.8072,1.809,1.8087,1.8106,1.8107,1.8119,1.8123,1.8127,1.813,1.8144,1.8152,1.8151,1.8152,1.8161,1.8169,1.8168,1.8172,1.818,1.8178,1.8144,1.8139,1.8134,1.813,1.8181,1.8181,1.8213,1.8214,1.8214]}]]